Location: Antin
(43.3330°N, 0.2804°E)
Time: 04:40:21
(UTC+00:00)

Cosmos 1980 Rocket - Pass Details

Date: 16 October 2021
Orbit: 828 x 851 km, 71.0° (Epoch: 02 December)

Event Time Altitude Azimuth Distance (km) Brightness Sun altitude
Rises 18:56:59 0° 214° (SW) 3,375 5.7 -19.5°
Reaches altitude 10° 18:59:27 10° 218° (SW) 2,448 5.0 -19.9°
Maximum altitude 19:05:00 60° 298° (WNW) 964 2.7 -20.9°
Drops below altitude 10° 19:10:37 10° 18° (NNE) 2,478 4.5 -21.9°
Sets 19:13:08 0° 23° (NNE) 3,420 5.2 -22.4°
